N5CSU Weather Reports


Display with metric or nautical units.
time (UTC)temp
F
wind
direction
speed
MPH
gust
MPH
rain 1hr
in
rain 24hr
in
rain mn
in
humidity
%
barometer
mb
20260510034041 77 184 0.0 0.0 0.00 0.00 0.00 71 1009.4
20260510033536 77 184 0.0 0.0 0.00 0.00 0.00 71 1009.6
20260510033035 77 190 0.0 0.0 0.00 0.00 0.00 70 1009.5
20260510032531 77 190 0.0 0.0 0.00 0.00 0.00 70 1009.5
20260510032026 78 191 0.0 0.0 0.00 0.00 0.00 69 1009.7
20260510031521 78 191 0.0 0.0 0.00 0.00 0.00 68 1009.6
20260510031017 78 179 0.0 0.0 0.00 0.00 0.00 68 1009.7
20260510030513 78 183 0.0 0.0 0.00 0.00 0.00 68 1009.6
20260510030011 78 179 0.0 0.0 0.00 0.00 0.00 67 1009.8
20260510025508 78 184 0.0 0.0 0.00 0.00 0.00 67 1009.6
20260510025005 78 188 0.0 0.0 0.00 0.00 0.00 67 1009.4
20260510024502 78 185 0.0 0.0 0.00 0.00 0.00 68 1009.5
20260510023958 78 182 0.0 0.0 0.00 0.00 0.00 68 1009.3
20260510023454 78 184 0.0 0.0 0.00 0.00 0.00 68 1009.3
20260510022951 77 185 0.0 0.0 0.00 0.00 0.00 68 1009.4
20260510022450 77 179 0.0 0.0 0.00 0.00 0.00 69 1009.3
20260510021949 77 177 0.0 0.0 0.00 0.00 0.00 69 1009.1
20260510021448 77 179 0.0 0.0 0.00 0.00 0.00 70 1009.1
20260510020944 76 186 0.0 0.0 0.00 0.00 0.00 69 1009.0
20260510020438 76 172 0.0 0.0 0.00 0.00 0.00 69 1009.1
20260510015935 76 172 0.0 0.0 0.00 0.00 0.00 69 1009.2
20260510015431 77 172 0.0 0.0 0.00 0.00 0.00 69 1008.9
20260510014926 77 172 0.0 0.0 0.00 0.00 0.00 68 1008.9
20260510014424 77 172 0.0 0.0 0.00 0.00 0.00 66 1008.7
20260510013920 77 172 0.0 0.0 0.00 0.00 0.00 65 1008.7
20260510013414 78 172 0.0 0.0 0.00 0.00 0.00 65 1008.8
20260510012910 78 172 0.0 0.0 0.00 0.00 0.00 65 1008.7
20260510012406 78 172 0.0 0.0 0.00 0.00 0.00 64 1008.7
20260510011900 79 172 0.0 0.0 0.00 0.00 0.00 63 1008.4
20260510011356 79 172 0.0 0.0 0.00 0.00 0.00 63 1008.4
20260510010852 80 172 0.0 0.0 0.00 0.00 0.00 62 1008.2
20260510010349 80 172 0.0 0.0 0.00 0.00 0.00 62 1008.1
20260510005846 80 171 0.0 0.0 0.00 0.00 0.00 61 1008.2
20260510005342 81 169 0.0 0.0 0.00 0.00 0.00 60 1007.9
20260510004840 81 169 0.0 0.0 0.00 0.00 0.00 61 1008.2
20260510004337 82 169 0.0 0.0 0.00 0.00 0.00 59 1008.3
20260510003835 82 169 0.0 0.0 0.00 0.00 0.00 58 1008.2
20260510003332 83 142 0.0 0.0 0.00 0.00 0.00 57 1008.1
20260510002830 83 134 0.0 0.0 0.00 0.00 0.00 54 1008.2
20260510002328 84 160 0.0 0.0 0.00 0.00 0.00 54 1008.0
20260510001824 84 164 0.0 0.0 0.00 0.00 0.00 55 1008.2
20260510001323 84 154 0.0 0.0 0.00 0.00 0.00 54 1008.1
20260510000818 84 171 0.0 0.0 0.00 0.00 0.00 55 1008.2
20260510000318 84 166 0.0 0.0 0.00 0.00 0.00 54 1008.2
20260509235813 84 173 0.0 0.0 0.00 0.00 0.00 54 1008.0
20260509235309 85 180 0.0 0.0 0.00 0.00 0.00 54 1008.2
20260509234805 85 181 0.0 0.0 0.00 0.00 0.00 53 1008.2
20260509234302 85 177 0.0 0.0 0.00 0.00 0.00 52 1008.0
20260509233800 85 190 0.0 0.0 0.00 0.00 0.00 53 1008.0
20260509233257 85 189 0.0 0.0 0.00 0.00 0.00 53 1008.0
20260509232753 85 256 0.0 0.0 0.00 0.00 0.00 54 1008.0
20260509232251 85 148 0.0 0.0 0.00 0.00 0.00 52 1008.1
20260509231747 85 207 0.0 0.0 0.00 0.00 0.00 52 1008.1
20260509231244 85 168 0.0 0.0 0.00 0.00 0.00 54 1008.0
20260509230741 85 3 0.0 1.0 0.00 0.00 0.00 53 1008.2
20260509230238 86 181 0.0 0.0 0.00 0.00 0.00 53 1008.1
20260509225733 85 176 0.0 0.0 0.00 0.00 0.00 52 1007.9
20260509225230 86 169 0.0 0.0 0.00 0.00 0.00 54 1008.1
20260509224725 86 148 0.0 0.0 0.00 0.00 0.00 53 1008.2
20260509224223 86 187 0.0 0.0 0.00 0.00 0.00 54 1008.2
20260509223719 86 95 0.0 0.0 0.00 0.00 0.00 52 1008.0
20260509223217 86 200 0.0 0.0 0.00 0.00 0.00 53 1008.0
20260509222713 86 201 0.0 0.0 0.00 0.00 0.00 54 1008.0
20260509222209 86 181 0.0 1.0 0.00 0.00 0.00 52 1008.1
20260509221705 86 167 0.0 0.0 0.00 0.00 0.00 53 1007.8
20260509221201 86 158 0.0 0.0 0.00 0.00 0.00 56 1007.8
20260509220658 86 176 0.0 0.0 0.00 0.00 0.00 54 1008.0
20260509220154 86 185 1.0 2.0 0.00 0.00 0.00 53 1008.0
20260509215650 86 321 0.0 1.0 0.00 0.00 0.00 54 1008.0
20260509215147 86 184 0.0 1.0 0.00 0.00 0.00 55 1008.1
20260509214644 86 188 0.0 0.0 0.00 0.00 0.00 54 1008.1
20260509214141 86 84 1.0 1.0 0.00 0.00 0.00 54 1008.2
20260509213638 86 117 0.0 0.0 0.00 0.00 0.00 55 1008.3
20260509213133 86 176 0.0 0.0 0.00 0.00 0.00 56 1008.3
20260509212631 86 93 2.0 2.0 0.00 0.00 0.00 57 1008.3
20260509212128 86 186 0.0 0.0 0.00 0.00 0.00 61 1008.5
20260509211624 86 174 1.0 2.0 0.00 0.00 0.00 61 1008.7
20260509211120 86 174 0.0 0.0 0.00 0.00 0.00 58 1008.7
20260509210617 86 171 0.0 0.0 0.00 0.00 0.00 62 1008.5
20260509210114 86 185 0.0 0.0 0.00 0.00 0.00 62 1008.7
20260509205614 86 191 0.0 0.0 0.00 0.00 0.00 60 1008.7
20260509205104 86 201 0.0 0.0 0.00 0.00 0.00 61 1008.9
20260509204600 86 229 0.0 0.0 0.00 0.00 0.00 64 1009.1
20260509204057 86 185 0.0 0.0 0.00 0.00 0.00 63 1009.1
20260509203552 86 26 1.0 1.0 0.00 0.00 0.00 61 1009.3
20260509203051 86 170 0.0 0.0 0.00 0.00 0.00 64 1009.2
20260509202545 85 198 0.0 0.0 0.00 0.00 0.00 66 1009.4
20260509202040 85 176 1.0 1.0 0.00 0.00 0.00 66 1009.4
20260509201535 86 180 0.0 1.0 0.00 0.00 0.00 64 1009.3
20260509201034 85 97 1.0 2.0 0.00 0.00 0.00 62 1009.4
20260509200527 85 190 0.0 0.0 0.00 0.00 0.00 60 1009.4
20260509200024 85 184 0.0 0.0 0.00 0.00 0.00 62 1009.4
20260509195519 86 36 1.0 1.0 0.00 0.00 0.00 59 1009.5
20260509195014 86 199 2.0 2.0 0.00 0.00 0.00 60 1009.4
20260509194509 86 189 0.0 0.0 0.00 0.00 0.00 60 1009.5
20260509194006 86 197 0.0 0.0 0.00 0.00 0.00 61 1009.6
20260509193501 86 56 0.0 1.0 0.00 0.00 0.00 60 1009.6
20260509192957 86 138 0.0 1.0 0.00 0.00 0.00 61 1009.5
20260509192454 86 172 0.0 0.0 0.00 0.00 0.00 63 1009.7
20260509191949 85 182 0.0 0.0 0.00 0.00 0.00 61 1009.6
20260509191444 85 188 0.0 0.0 0.00 0.00 0.00 64 1009.7
20260509190940 85 225 0.0 0.0 0.00 0.00 0.00 64 1009.9
20260509190438 86 192 0.0 0.0 0.00 0.00 0.00 63 1009.8
20260509185936 85 184 0.0 0.0 0.00 0.00 0.00 64 1010.0
20260509185433 85 182 0.0 0.0 0.00 0.00 0.00 65 1009.9
20260509184929 84 199 0.0 0.0 0.00 0.00 0.00 65 1009.9
20260509184427 84 182 0.0 0.0 0.00 0.00 0.00 64 1010.0
20260509183923 84 212 0.0 1.0 0.00 0.00 0.00 65 1009.9
20260509183422 84 200 0.0 0.0 0.00 0.00 0.00 66 1009.9
20260509182920 84 205 0.0 0.0 0.00 0.00 0.00 65 1009.8
20260509182416 84 190 0.0 0.0 0.00 0.00 0.00 65 1009.7
20260509181914 84 199 0.0 0.0 0.00 0.00 0.00 66 1010.3
20260509181411 84 172 0.0 0.0 0.00 0.00 0.00 66 1010.2
20260509180908 84 202 0.0 0.0 0.00 0.00 0.00 67 1010.3
20260509180403 84 170 0.0 0.0 0.00 0.00 0.00 67 1010.1
20260509175901 83 169 0.0 0.0 0.00 0.00 0.00 68 1010.3
20260509175357 83 184 1.0 1.0 0.00 0.00 0.00 66 1010.5
20260509174853 83 203 0.0 0.0 0.00 0.00 0.00 69 1010.5
20260509174344 82 183 0.0 0.0 0.00 0.00 0.00 70 1010.6
20260509173840 82 204 0.0 0.0 0.00 0.00 0.00 70 1010.7
20260509173335 82 211 0.0 0.0 0.00 0.00 0.00 69 1010.5
20260509172832 82 183 0.0 0.0 0.00 0.00 0.00 70 1010.7
20260509172329 82 204 0.0 0.0 0.00 0.00 0.00 70 1010.6
20260509171825 82 188 0.0 0.0 0.00 0.00 0.00 72 1010.6
20260509171320 82 215 0.0 0.0 0.00 0.00 0.00 70 1010.7
20260509170817 82 192 0.0 0.0 0.00 0.00 0.00 70 1010.8
20260509170313 82 129 1.0 2.0 0.00 0.00 0.00 71 1010.9
20260509165813 81 179 0.0 0.0 0.00 0.00 0.00 72 1010.6
20260509165307 81 191 0.0 0.0 0.00 0.00 0.00 72 1010.8
20260509164803 81 170 0.0 0.0 0.00 0.00 0.00 71 1010.9
20260509164259 81 185 0.0 0.0 0.00 0.00 0.00 71 1011.1
20260509163756 81 183 0.0 0.0 0.00 0.00 0.00 73 1011.0
20260509163252 81 176 0.0 0.0 0.00 0.00 0.00 73 1010.8
20260509162751 81 186 0.0 0.0 0.00 0.00 0.00 76 1010.8
20260509162245 80 196 1.0 1.0 0.00 0.00 0.00 74 1010.8
20260509161742 80 184 0.0 1.0 0.00 0.00 0.00 72 1010.8
20260509161237 80 183 0.0 0.0 0.00 0.00 0.00 73 1010.9
20260509160732 80 183 0.0 0.0 0.00 0.00 0.00 75 1010.8
20260509160229 80 189 0.0 0.0 0.00 0.00 0.00 74 1010.9
20260509155724 80 189 0.0 0.0 0.00 0.00 0.00 72 1010.9
20260509155221 79 169 0.0 1.0 0.00 0.00 0.00 73 1010.8
20260509154718 80 185 1.0 1.0 0.00 0.00 0.00 75 1010.7
20260509154214 79 164 0.0 0.0 0.00 0.00 0.00 75 1010.7
20260509153711 79 141 1.0 1.0 0.00 0.00 0.00 74 1010.7
20260509153208 78 168 0.0 0.0 0.00 0.00 0.00 75 1010.7
20260509152704 78 169 0.0 0.0 0.00 0.00 0.00 77 1010.5
20260509152200 78 156 0.0 1.0 0.00 0.00 0.00 78 1010.6
20260509151657 77 169 0.0 0.0 0.00 0.00 0.00 77 1010.6
20260509151154 77 176 0.0 0.0 0.00 0.00 0.00 79 1010.5
20260509150652 77 186 0.0 0.0 0.00 0.00 0.00 78 1010.6
20260509150150 77 192 0.0 0.0 0.00 0.00 0.00 80 1010.6
20260509145646 76 175 0.0 0.0 0.00 0.00 0.00 80 1010.8
20260509145141 76 193 0.0 0.0 0.00 0.00 0.00 82 1010.8
20260509144638 76 183 0.0 0.0 0.00 0.00 0.00 81 1010.9
20260509144136 76 188 0.0 0.0 0.00 0.00 0.00 82 1010.9
20260509143633 75 82 0.0 0.0 0.00 0.00 0.00 84 1010.8
20260509143130 75 175 0.0 0.0 0.00 0.00 0.00 83 1010.8
20260509142625 75 172 0.0 0.0 0.00 0.00 0.00 83 1010.9
20260509142122 75 184 0.0 0.0 0.00 0.00 0.00 84 1010.6
20260509141618 74 189 0.0 0.0 0.00 0.00 0.00 85 1010.7
20260509141115 74 199 0.0 0.0 0.00 0.00 0.00 86 1010.6
20260509140612 73 187 0.0 0.0 0.00 0.00 0.00 87 1010.7
20260509140110 73 168 0.0 0.0 0.00 0.00 0.00 87 1010.6
20260509135607 73 185 0.0 0.0 0.00 0.00 0.00 89 1010.6
20260509135105 73 183 0.0 0.0 0.00 0.00 0.00 90 1010.9
20260509134601 72 178 0.0 0.0 0.00 0.00 0.00 90 1010.5
20260509134059 71 165 0.0 0.0 0.00 0.00 0.00 90 1010.4
20260509133555 71 184 0.0 0.0 0.00 0.00 0.00 91 1010.4
20260509133053 71 161 0.0 0.0 0.00 0.00 0.00 91 1010.5
20260509132551 70 179 0.0 0.0 0.00 0.00 0.00 92 1010.5
20260509132049 70 183 0.0 0.0 0.00 0.00 0.00 93 1010.3
20260509131545 69 184 0.0 0.0 0.00 0.00 0.00 94 1010.4
20260509131042 69 181 0.0 0.0 0.00 0.00 0.00 95 1010.4
20260509130537 69 178 0.0 0.0 0.00 0.00 0.00 95 1010.3
20260509130035 69 177 0.0 0.0 0.00 0.00 0.00 96 1010.0
20260509125531 69 169 0.0 0.0 0.00 0.00 0.00 96 1010.3
20260509125027 69 181 0.0 0.0 0.00 0.00 0.00 96 1010.5
20260509124519 68 177 0.0 0.0 0.00 0.00 0.00 97 1010.3
20260509124016 68 174 0.0 0.0 0.00 0.00 0.00 97 1010.4
20260509123514 68 176 0.0 0.0 0.00 0.00 0.00 97 1010.3
20260509123009 68 177 0.0 0.0 0.00 0.00 0.00 97 1010.0
20260509122506 68 177 0.0 0.0 0.00 0.00 0.00 97 1010.4
20260509122003 68 177 0.0 0.0 0.00 0.00 0.00 97 1010.4
20260509121459 68 177 0.0 0.0 0.00 0.00 0.00 97 1010.4
20260509120958 68 177 0.0 0.0 0.00 0.00 0.00 97 1010.3
20260509120455 68 177 0.0 0.0 0.00 0.00 0.00 97 1010.1
20260509115953 68 177 0.0 0.0 0.00 0.00 0.00 96 1010.4
20260509115450 68 178 0.0 0.0 0.00 0.00 0.00 96 1009.9
20260509114948 68 178 0.0 0.0 0.00 0.00 0.00 96 1009.8
20260509114446 68 178 0.0 0.0 0.00 0.00 0.00 96 1009.7
20260509113945 68 178 0.0 0.0 0.00 0.00 0.00 96 1009.5
20260509113442 68 178 0.0 0.0 0.00 0.00 0.00 96 1009.7
20260509112939 68 174 0.0 0.0 0.00 0.00 0.00 96 1009.7
20260509112437 68 174 0.0 0.0 0.00 0.00 0.00 96 1009.7
20260509111933 68 173 0.0 0.0 0.00 0.00 0.00 96 1009.3
20260509111431 69 173 0.0 0.0 0.00 0.00 0.00 96 1009.4
20260509110928 69 173 0.0 0.0 0.00 0.00 0.00 96 1009.3
20260509110424 69 174 0.0 0.0 0.00 0.00 0.00 96 1009.2
20260509105922 69 175 0.0 0.0 0.00 0.00 0.00 96 1009.3
20260509105420 69 175 0.0 0.0 0.00 0.00 0.00 96 1009.4
20260509104917 69 175 0.0 0.0 0.00 0.00 0.00 95 1009.2
20260509104413 69 175 0.0 0.0 0.00 0.00 0.00 95 1009.5
20260509103911 70 175 0.0 0.0 0.00 0.00 0.00 95 1009.4
20260509103408 69 175 0.0 0.0 0.00 0.00 0.00 95 1009.2
20260509102906 70 175 0.0 0.0 0.00 0.00 0.00 95 1009.3
20260509102403 70 175 0.0 0.0 0.00 0.00 0.00 95 1009.3
20260509101859 70 175 0.0 0.0 0.00 0.00 0.00 95 1009.3
20260509101355 70 175 0.0 0.0 0.00 0.00 0.00 95 1009.2
20260509100853 70 175 0.0 0.0 0.00 0.00 0.00 94 1009.1
20260509100350 70 174 0.0 0.0 0.00 0.00 0.00 94 1009.1
20260509095847 70 174 0.0 0.0 0.00 0.00 0.00 94 1008.8
20260509095345 70 172 0.0 0.0 0.00 0.00 0.00 94 1008.8
20260509094842 69 32 0.0 0.0 0.00 0.00 0.00 94 1008.5
20260509094338 70 176 0.0 0.0 0.00 0.00 0.00 94 1008.3
20260509093836 69 173 0.0 0.0 0.00 0.00 0.00 94 1008.7
20260509093333 69 112 0.0 0.0 0.00 0.00 0.00 94 1008.3
20260509092832 69 202 0.0 0.0 0.00 0.00 0.00 94 1007.5
20260509092329 69 205 0.0 0.0 0.00 0.00 0.00 94 1007.5
20260509091826 69 204 0.0 0.0 0.00 0.00 0.00 94 1007.0
20260509091324 69 196 0.0 0.0 0.00 0.00 0.00 94 1006.8
20260509090820 69 210 0.0 0.0 0.00 0.00 0.00 94 1006.7
20260509090318 69 175 0.0 0.0 0.00 0.00 0.00 94 1007.0
20260509085814 69 193 0.0 0.0 0.00 0.00 0.00 95 1006.8
20260509085313 69 178 0.0 0.0 0.00 0.00 0.00 95 1007.1
20260509084809 69 195 0.0 0.0 0.00 0.00 0.00 95 1007.5
20260509084306 69 192 0.0 0.0 0.00 0.00 0.00 95 1007.9
20260509083803 69 185 0.0 0.0 0.00 0.00 0.00 95 1008.0
20260509083300 69 190 0.0 0.0 0.00 0.00 0.00 95 1008.4
20260509082756 69 190 0.0 0.0 0.00 0.00 0.00 95 1008.8
20260509082253 69 182 0.0 0.0 0.00 0.00 0.00 95 1009.2
20260509081750 69 199 0.0 0.0 0.00 0.00 0.00 95 1009.5
20260509081248 68 185 0.0 0.0 0.00 0.00 0.00 94 1009.5
20260509080746 68 182 0.0 0.0 0.00 0.00 0.00 94 1009.7
20260509080243 69 182 0.0 0.0 0.00 0.00 0.00 94 1009.9
20260509075742 69 182 0.0 0.0 0.00 0.00 0.00 94 1009.8
20260509075238 69 182 0.0 0.0 0.00 0.00 0.00 94 1010.1
20260509074735 69 182 0.0 0.0 0.00 0.00 0.00 94 1010.0
20260509074233 69 182 0.0 0.0 0.00 0.00 0.00 94 1010.4
20260509073729 69 182 0.0 0.0 0.00 0.00 0.00 94 1010.5
20260509073225 69 182 0.0 0.0 0.00 0.00 0.00 94 1010.6
20260509072722 69 182 0.0 0.0 0.00 0.00 0.00 93 1010.6
20260509072219 69 182 0.0 0.0 0.00 0.00 0.00 94 1010.8
20260509071716 68 181 0.0 0.0 0.00 0.00 0.00 94 1011.0
20260509071213 68 192 0.0 0.0 0.00 0.00 0.00 94 1011.1
20260509070710 68 192 0.0 0.0 0.00 0.00 0.00 93 1011.1
20260509070206 68 192 0.0 0.0 0.00 0.00 0.00 93 1010.8
20260509065702 68 190 0.0 0.0 0.00 0.00 0.00 93 1010.4
20260509065158 68 185 0.0 0.0 0.00 0.00 0.00 92 1010.2
20260509064655 69 185 0.0 0.0 0.00 0.00 0.00 92 1010.2
20260509064153 69 185 0.0 0.0 0.00 0.00 0.00 92 1010.3
20260509063650 69 185 0.0 0.0 0.00 0.00 0.00 92 1010.4
20260509063146 69 185 0.0 0.0 0.00 0.00 0.00 92 1010.7
20260509062644 69 185 0.0 0.0 0.00 0.00 0.00 91 1010.6
20260509062141 69 186 0.0 0.0 0.00 0.00 0.00 91 1010.6
20260509061637 69 186 0.0 0.0 0.00 0.00 0.00 91 1010.6
20260509061135 69 186 0.0 0.0 0.00 0.00 0.00 91 1010.8
20260509060632 70 171 0.0 0.0 0.00 0.00 0.00 91 1010.8
20260509060128 70 171 0.0 0.0 0.00 0.00 0.00 90 1011.0
20260509055624 70 171 0.0 0.0 0.00 0.00 0.00 90 1011.1
20260509055120 70 171 0.0 0.0 0.00 0.00 0.00 90 1011.1
20260509054617 70 170 0.0 0.0 0.00 0.00 0.00 90 1011.3
20260509054115 70 170 0.0 0.0 0.00 0.00 0.00 90 1011.6
20260509053613 70 170 0.0 0.0 0.00 0.00 0.00 89 1011.8
20260509053110 70 170 0.0 0.0 0.00 0.00 0.00 89 1011.5
20260509052608 71 180 0.0 0.0 0.00 0.00 0.00 89 1011.1
20260509052105 71 180 0.0 0.0 0.00 0.00 0.00 88 1010.6
20260509051603 71 180 0.0 0.0 0.00 0.00 0.00 88 1010.3
20260509051100 71 169 0.0 0.0 0.00 0.00 0.00 87 1010.4
20260509050556 71 191 0.0 0.0 0.00 0.00 0.00 87 1010.2
20260509050053 72 174 0.0 0.0 0.00 0.00 0.00 87 1010.3
20260509045551 72 172 0.0 0.0 0.00 0.00 0.00 87 1010.5
20260509045047 72 172 0.0 0.0 0.00 0.00 0.00 86 1010.6
20260509044545 71 193 0.0 0.0 0.00 0.00 0.00 87 1010.2
20260509044042 71 191 0.0 0.0 0.00 0.00 0.00 87 1010.2
20260509043538 71 195 0.0 0.0 0.00 0.00 0.00 87 1010.1
20260509043034 71 201 0.0 0.0 0.00 0.00 0.00 87 1010.4
20260509042530 71 177 0.0 0.0 0.00 0.00 0.00 87 1010.5
20260509042026 71 177 0.0 0.0 0.00 0.00 0.00 86 1010.5
20260509041523 72 177 0.0 0.0 0.00 0.00 0.00 86 1010.7
20260509041021 72 177 0.0 0.0 0.00 0.00 0.00 86 1011.0
20260509040519 72 177 0.0 0.0 0.00 0.00 0.00 86 1011.0
20260509040016 72 173 0.0 0.0 0.00 0.00 0.00 85 1011.0
20260509035513 72 171 0.0 0.0 0.00 0.00 0.00 85 1010.9
20260509035009 72 171 0.0 0.0 0.00 0.00 0.00 85 1010.7